Torna al catalogo

CZ-4 DEB

AttivoSSO
NORAD 28074·DEBRIS·🇨🇳 China

Lanciato Oct 14, 1999 da Taiyuan Satellite Launch Center

Loading…

Prossimi Passaggi (prossime 24 ore)

TLE

AggiornatoSource: Space-Track

Epoca: Sep 14, 2026, 09:15 UTC

1 28074U 99057NE  26257.38554632  .00000092  00000-0  46757-4 0  9993
2 28074  98.8211 300.1342 0103738 103.9273 269.7690 14.34147884236286

Traccia CZ-4 DEB in tempo reale con AllMySat

Download on the App Store